Theta_e
313 312 320 323 323 325 324 328 330 336 336 328 330 323 315 321 319 321 323 321 323 323 323 321 321 320 319 320 321 321 323 325 324 323 326 335 331 325 327 328 332 333 336 340 338 337 339 342 341 341 343 342 342 342 342 342 342 341 339 338 336 335 335 334 336 334 334 335 335 336 336 337 337 338 337 337 337 337 338 338 339 339 339 338 339 338 337 335 333 333 333 333 333 331 326 321 318
315 316 322 322 324 324 328 336 332 339 339 319 320 319 313 324 322 321 325 323 327 324 325 323 322 323 321 321 320 320 320 321 323 323 330 332 327 326 328 331 334 333 337 339 338 337 339 341 341 342 343 343 342 342 342 342 341 341 339 337 335 334 334 335 336 334 335 335 336 338 337 338 338 338 338 337 337 337 338 338 338 338 338 337 337 337 335 335 334 333 331 331 329 325 322 318 315
320 320 322 321 324 324 335 340 333 338 333 314 316 322 316 320 321 322 326 326 328 325 323 322 322 323 321 322 320 321 323 320 324 334 336 328 326 326 328 335 335 335 338 338 338 336 338 341 341 342 342 342 341 341 341 341 341 340 339 335 334 335 334 335 335 335 335 336 338 338 338 339 338 337 337 337 337 337 338 337 337 337 336 336 336 335 334 332 330 329 327 324 321 318 316 313 311
323 323 323 323 329 333 344 338 338 339 325 318 316 321 322 319 322 322 326 326 326 323 321 321 320 321 320 323 320 319 323 320 322 335 337 326 325 325 327 335 335 337 338 339 338 336 338 340 341 341 342 342 340 341 340 341 340 340 338 332 332 335 336 336 335 335 335 337 338 338 338 338 338 337 337 337 337 337 336 336 336 336 335 334 334 332 330 327 326 326 322 317 314 311 310 309 308
322 325 322 324 330 332 338 331 336 331 320 325 316 319 326 321 324 322 324 323 322 321 321 322 320 320 319 322 322 320 323 321 319 326 328 323 327 325 325 331 335 339 339 340 338 336 337 338 341 341 342 342 340 341 340 341 340 340 337 330 332 335 336 336 335 335 335 337 338 337 338 337 338 337 337 337 336 335 335 335 335 334 333 332 331 330 328 325 324 323 318 311 308 306 305 305 304
321 324 323 322 320 323 334 326 327 327 326 331 319 321 323 320 323 320 322 320 321 321 320 321 320 320 321 323 321 319 323 322 321 326 325 322 326 326 323 327 335 340 340 340 338 337 336 338 341 340 341 341 340 341 341 341 340 340 337 329 332 335 336 335 335 336 336 337 337 337 338 337 338 338 337 336 334 333 333 334 334 333 331 330 329 330 329 326 325 323 318 310 304 302 301 301 301
321 323 328 328 321 326 335 324 327 331 327 325 321 322 320 321 322 320 323 320 321 321 320 321 320 320 320 322 319 319 322 322 322 326 325 321 323 324 324 326 334 339 339 339 338 337 336 338 340 340 341 341 340 340 340 341 340 339 336 331 332 335 336 335 334 336 336 338 337 337 338 338 339 337 336 335 333 331 330 331 332 331 329 328 329 329 329 327 326 324 320 310 302 300 299 300 300
322 321 329 338 334 335 334 325 331 333 324 321 321 320 319 323 323 323 323 320 320 320 321 323 321 320 319 319 322 322 321 321 322 324 323 320 320 323 325 326 333 338 339 339 338 337 335 337 339 341 340 340 340 340 340 340 340 339 337 333 333 335 335 335 334 335 336 337 337 338 338 338 338 337 336 334 332 331 330 330 330 329 328 329 328 327 327 328 326 325 320 308 300 299 299 299 299
321 319 328 337 334 337 337 331 328 325 325 321 316 319 320 321 322 323 322 320 320 321 324 324 321 321 320 320 324 323 320 323 322 322 321 319 319 322 326 326 328 334 338 340 338 337 335 336 338 340 340 340 340 339 340 339 339 339 337 333 334 335 335 335 334 334 335 335 336 337 337 338 338 337 336 334 333 332 331 331 330 329 329 329 327 325 325 326 326 325 318 305 299 299 299 299 299
326 323 327 336 332 331 331 330 327 322 322 321 317 320 321 320 322 322 321 320 319 320 322 321 320 320 321 321 324 322 321 323 321 320 319 319 320 321 325 325 326 330 336 339 339 337 335 335 336 338 339 339 340 340 339 339 339 339 337 334 335 336 335 335 334 333 333 335 335 337 337 338 339 337 336 334 333 333 332 332 330 329 329 328 327 326 324 325 325 323 313 301 299 299 299 299 299
335 333 335 340 332 326 325 328 328 324 322 322 320 321 322 321 322 321 321 319 318 320 320 319 319 322 321 322 326 322 321 323 320 319 318 319 320 320 325 328 329 329 332 336 339 339 336 335 336 337 338 339 339 340 340 339 339 338 337 335 335 336 335 335 334 333 332 334 335 336 337 338 338 337 336 335 334 333 333 332 330 330 329 327 327 326 325 325 323 320 309 299 299 299 299 299 299
332 338 346 340 327 325 328 328 325 328 329 323 320 322 320 319 321 319 319 318 318 320 321 320 318 320 320 323 326 320 320 323 319 318 318 319 319 319 324 330 333 333 333 335 338 339 338 336 335 336 337 338 339 339 340 339 339 338 337 335 334 335 335 335 334 332 333 334 334 335 337 337 338 337 336 335 334 333 332 332 331 330 328 326 326 326 326 324 322 320 310 299 299 299 299 299 299
330 333 339 328 326 327 324 326 330 333 332 324 319 321 318 317 320 319 320 318 318 318 319 321 318 318 319 323 324 321 322 321 319 318 317 318 319 319 323 330 334 336 337 336 337 339 339 338 335 336 337 338 339 339 339 339 339 338 337 335 334 334 334 334 333 332 333 334 334 335 337 337 338 337 336 335 334 333 332 332 331 329 327 325 324 325 325 322 321 321 312 299 299 298 299 299 299
326 332 333 321 327 330 322 324 330 327 323 324 322 321 319 317 319 320 320 318 320 319 318 320 317 317 318 319 326 332 326 318 319 319 317 318 320 321 323 328 330 333 337 337 337 338 340 340 338 336 337 338 339 339 339 339 339 338 338 336 334 333 333 333 333 332 333 333 334 335 337 337 337 337 336 335 334 333 333 332 330 329 326 324 323 323 324 322 320 320 309 299 299 298 299 298 299
322 338 339 325 327 329 325 322 322 322 319 324 322 318 319 317 317 319 318 316 320 320 316 316 315 317 317 315 324 331 323 317 320 320 318 318 321 323 325 328 329 329 333 336 336 337 339 340 340 338 337 338 339 339 339 339 339 338 338 337 335 333 333 333 333 332 332 332 332 334 336 337 337 337 336 335 334 333 332 332 331 328 325 324 322 319 321 322 320 318 307 298 299 298 298 298 299
329 344 337 326 328 324 324 322 322 323 318 323 322 316 317 317 317 316 317 316 318 318 315 317 315 316 318 316 318 318 317 319 321 321 318 319 323 325 327 329 330 330 331 334 335 336 338 340 340 340 338 338 338 339 339 339 339 339 338 338 336 335 334 334 334 333 332 332 332 333 335 337 337 336 336 335 334 333 332 332 330 328 326 324 323 317 317 320 319 315 305 298 298 298 298 298 298
338 341 330 325 327 324 325 324 320 319 318 323 322 317 316 317 317 316 315 315 318 318 317 319 315 315 318 318 315 314 316 319 321 321 320 321 324 326 329 329 329 331 332 334 335 336 338 339 340 340 340 338 338 338 338 339 339 340 339 339 338 336 335 335 335 335 333 333 332 332 334 336 336 336 336 335 334 333 332 332 330 328 326 325 324 316 313 318 319 314 306 299 298 298 298 298 298
338 333 324 324 327 327 330 325 316 317 317 317 318 317 315 316 318 316 315 316 318 318 317 316 315 315 315 315 314 314 316 319 320 320 322 324 325 326 329 330 329 330 332 334 335 336 337 338 339 339 340 339 339 338 338 338 339 339 339 339 338 337 336 336 336 336 335 334 333 333 333 335 335 335 335 335 334 332 331 332 330 328 326 325 324 316 310 316 319 314 307 301 298 298 297 298 298
333 331 323 329 335 330 328 322 316 315 315 316 318 318 316 315 316 315 315 317 317 316 316 314 314 316 315 314 313 313 316 318 320 320 322 324 324 326 326 329 330 328 329 331 333 335 336 337 338 339 339 339 339 339 338 338 338 338 339 339 339 337 337 336 336 337 336 335 334 333 333 334 335 335 334 334 333 332 331 331 330 328 326 326 324 317 310 316 319 315 312 306 298 298 297 297 298
330 328 323 336 339 328 324 321 318 316 314 316 319 318 317 316 316 315 315 317 317 316 315 314 315 317 316 316 312 313 317 318 319 319 319 321 322 323 323 325 328 326 323 323 326 330 334 336 337 338 338 339 339 339 339 339 338 337 338 338 339 338 337 337 337 337 337 335 334 334 333 334 334 334 333 333 333 332 332 330 329 327 326 326 324 318 310 315 319 316 314 309 298 297 297 297 298
324 323 326 337 330 322 324 323 320 317 315 316 317 317 317 317 316 315 315 316 317 315 315 314 315 315 316 316 311 312 317 317 318 319 318 318 319 319 320 321 321 321 319 319 321 325 329 333 335 336 337 338 338 338 338 338 338 337 337 338 338 338 338 338 337 337 337 336 335 334 334 333 334 334 333 333 333 332 331 330 328 326 325 325 324 319 312 313 318 316 313 308 298 297 297 297 297
321 322 325 330 322 319 322 322 320 316 316 317 317 317 316 316 315 316 315 316 316 315 315 314 315 315 314 314 311 311 316 318 316 316 318 317 317 318 318 318 318 319 319 319 319 320 323 327 331 334 335 337 337 337 338 338 338 337 337 337 338 338 337 338 338 338 337 336 335 335 334 334 334 334 333 333 333 332 331 329 327 326 326 325 323 320 315 312 315 315 311 306 299 297 297 297 297
321 322 322 324 320 318 319 320 318 317 316 316 317 316 314 315 316 317 317 316 316 315 315 314 313 312 311 311 310 312 318 321 315 313 317 317 317 318 317 318 318 318 319 319 318 319 319 322 327 331 334 335 335 336 336 337 337 337 336 336 338 338 338 338 338 338 337 337 336 335 335 335 334 334 334 333 333 332 331 329 328 327 326 325 324 321 318 314 313 313 310 307 302 298 297 296 296
320 322 322 321 319 318 319 317 317 317 315 315 315 314 313 314 315 316 317 315 315 315 314 313 311 309 309 310 312 313 314 314 312 312 315 316 316 317 317 317 317 318 318 318 318 319 319 319 322 327 330 332 333 335 335 336 336 335 335 335 336 338 338 338 337 337 337 337 336 336 335 335 335 334 334 333 332 332 330 329 328 327 326 325 324 322 320 316 313 312 309 307 303 299 297 296 296
320 320 320 318 317 319 318 316 317 317 314 314 313 314 314 313 313 314 314 313 315 314 313 314 312 311 311 311 313 313 312 310 308 310 311 312 313 314 315 316 316 316 317 318 318 318 318 319 321 323 325 328 330 333 334 335 335 334 334 334 335 336 338 337 337 337 336 336 336 335 335 335 335 334 334 333 332 331 330 329 328 327 326 325 324 322 321 318 314 312 309 307 304 301 298 296 296
318 316 316 315 315 316 316 316 316 315 314 312 312 314 313 312 313 314 315 315 314 313 314 314 313 314 313 312 313 312 313 311 306 307 309 310 311 311 313 314 314 315 316 317 317 317 318 319 320 321 323 325 327 330 332 334 335 335 334 334 334 335 336 336 336 336 336 336 335 335 335 335 335 334 334 333 332 331 330 328 328 326 325 325 324 323 321 318 315 312 310 308 305 303 300 297 296
315 314 314 315 315 315 315 315 315 313 313 312 312 314 313 313 315 314 317 318 315 314 315 314 312 313 313 314 313 309 308 308 305 306 309 309 309 309 310 311 312 313 315 315 316 317 318 318 319 321 323 324 325 327 328 332 335 335 335 334 334 335 336 336 336 336 335 335 334 334 334 334 334 334 333 333 332 331 329 328 327 326 325 325 324 323 322 319 314 312 310 308 306 305 302 299 297
313 313 315 316 315 315 315 314 314 312 313 315 314 314 314 313 314 316 316 316 313 313 315 315 313 313 314 316 312 307 307 307 307 307 307 307 307 307 308 310 311 313 314 314 315 316 317 318 319 320 323 325 326 326 326 329 332 335 335 335 335 335 335 335 335 335 335 334 334 333 333 334 334 334 333 333 332 331 329 327 327 326 325 325 324 323 321 319 315 312 312 311 310 308 305 302 298
313 313 314 317 316 315 315 314 313 312 313 316 314 315 317 315 315 317 315 314 313 313 314 315 314 313 314 314 309 308 308 307 307 307 306 306 306 306 306 308 312 314 314 315 315 316 317 318 320 322 324 326 326 326 326 326 330 334 335 335 335 336 336 336 336 335 334 334 333 333 333 333 333 333 333 333 332 331 329 327 327 327 326 324 323 322 321 319 316 314 314 314 313 312 308 304 299
314 314 313 315 316 318 317 313 312 312 313 315 314 316 323 324 318 317 314 312 313 314 315 314 313 314 312 310 309 310 308 306 307 306 305 306 305 306 306 308 311 314 316 316 316 316 317 318 321 323 325 326 327 326 326 326 328 332 334 335 335 336 336 336 336 336 335 334 333 333 333 333 333 333 333 332 331 330 329 327 327 327 325 324 323 322 320 319 317 315 315 314 314 313 310 305 299
314 312 315 316 315 322 323 314 314 316 314 313 313 316 322 324 320 318 314 311 312 314 315 313 312 312 310 308 309 309 306 306 306 305 305 305 305 305 306 308 310 313 315 316 317 316 317 320 322 325 326 327 327 327 327 327 328 331 333 333 333 334 335 335 336 335 335 335 334 334 334 334 333 333 333 332 330 329 328 328 328 327 325 324 323 322 320 318 316 315 314 314 314 312 311 307 300
320 313 323 325 316 322 324 315 316 317 314 311 312 317 319 318 319 320 316 312 312 313 313 313 312 311 309 309 309 307 306 305 304 304 304 304 304 304 305 307 308 311 314 316 317 318 320 321 323 325 327 328 328 328 328 328 329 330 332 332 332 332 332 333 333 334 334 334 334 333 333 332 332 332 331 331 329 329 328 328 327 326 325 323 322 321 320 318 316 314 313 314 313 312 311 307 301
327 316 323 328 319 318 320 318 319 315 314 312 312 317 318 318 320 320 317 313 313 313 312 312 311 310 310 309 307 306 305 304 304 304 303 303 303 303 304 305 307 309 312 315 317 318 319 320 321 323 324 327 328 328 328 329 329 329 330 331 330 331 330 331 331 331 331 331 331 331 331 331 331 331 330 329 328 328 328 327 327 326 324 323 322 321 320 318 316 314 314 313 313 312 311 308 303
329 320 319 324 320 316 318 321 320 315 315 314 313 315 315 317 318 318 316 313 312 312 312 312 311 309 309 307 306 305 304 303 303 302 302 302 302 303 303 304 306 308 310 312 314 315 315 315 316 317 319 322 324 327 328 328 328 329 329 329 329 329 329 329 329 329 329 329 329 328 329 329 329 329 329 328 328 327 327 326 326 325 324 323 322 321 320 318 316 315 314 314 313 312 311 309 305
326 323 320 322 321 317 318 320 319 317 317 316 317 317 316 316 316 317 316 312 312 314 312 312 311 308 308 306 305 304 302 302 302 301 301 301 301 302 302 304 305 306 308 310 311 311 311 312 313 314 316 319 322 324 325 325 326 327 327 327 327 327 327 327 327 327 327 327 327 327 327 327 327 326 326 326 326 326 325 325 325 324 323 323 322 321 319 317 316 315 314 314 313 312 310 309 305
321 321 319 320 320 319 317 317 318 317 315 317 318 317 317 318 318 318 316 313 313 315 313 311 309 308 307 305 304 303 302 302 301 301 301 300 301 301 301 302 303 305 306 308 309 310 310 311 311 313 315 318 319 321 321 322 323 323 324 324 324 323 323 324 324 324 324 324 325 325 325 325 325 325 325 325 324 325 324 324 323 323 322 322 321 320 319 318 317 316 315 314 313 311 309 306 303
315 316 317 318 318 317 315 316 319 316 314 320 320 317 319 320 319 318 315 314 315 315 314 310 308 307 306 305 304 303 302 302 301 300 300 300 300 300 301 301 303 304 304 306 307 307 308 309 310 310 313 315 316 317 317 318 319 320 321 321 321 321 321 321 321 322 321 322 322 322 322 322 322 323 323 323 323 324 323 323 322 322 321 321 320 320 319 318 317 316 314 313 311 310 308 305 302
313 315 316 317 318 316 316 316 318 314 315 323 321 317 320 321 318 316 314 313 313 314 313 309 307 307 305 305 304 303 302 301 300 300 299 300 299 300 299 300 301 301 301 303 304 305 307 307 307 308 309 312 314 315 316 316 317 317 317 318 318 318 319 319 319 319 319 319 319 320 320 320 320 320 320 321 321 322 322 322 322 321 321 320 319 318 317 316 315 314 313 311 309 307 306 304 301
314 316 317 319 319 318 320 320 320 317 316 324 324 318 320 321 318 314 311 311 309 309 310 308 307 306 305 304 303 302 302 301 300 299 299 299 299 299 299 299 299 299 300 301 302 304 305 305 306 306 307 308 310 311 312 313 314 315 316 316 316 316 315 315 316 316 316 316 316 316 316 316 317 317 317 317 318 319 319 320 319 319 319 318 317 316 315 314 313 312 311 310 308 305 304 302 300
317 319 318 319 318 318 323 323 323 321 316 321 321 317 321 322 317 313 309 309 308 306 307 306 306 305 304 304 302 302 301 300 300 299 298 298 298 298 298 298 298 298 299 299 301 302 302 303 304 305 305 306 307 308 308 309 310 311 312 313 313 312 311 311 312 312 312 312 311 311 311 311 311 312 312 313 314 315 315 316 316 316 316 315 315 313 313 312 312 311 310 309 307 303 302 302 300
321 321 319 319 319 320 323 322 323 323 320 320 317 320 329 326 318 314 310 309 307 306 305 305 305 304 303 302 301 301 300 300 299 298 298 297 297 297 297 298 298 298 298 298 299 299 300 301 302 303 304 305 305 305 306 306 307 307 308 308 308 308 307 307 307 306 307 307 307 308 308 308 308 308 308 308 309 310 311 312 312 312 313 313 313 312 311 310 310 309 309 308 306 304 302 302 301
322 324 321 319 320 322 324 322 322 325 325 320 316 324 335 332 323 316 310 309 308 306 305 304 304 303 302 302 301 300 300 299 298 297 297 296 296 296 296 297 297 297 297 297 298 298 299 300 300 302 302 303 304 304 305 305 305 305 305 305 304 304 303 303 302 303 304 304 305 306 307 308 308 307 306 305 305 305 306 306 307 308 309 310 310 310 310 309 308 307 307 306 305 305 303 301 299
321 325 324 323 322 322 324 321 320 325 326 319 317 322 329 330 327 318 313 311 309 306 305 304 303 302 302 301 301 300 299 299 298 296 295 295 295 295 295 295 296 296 297 297 298 298 298 299 299 300 300 300 301 302 303 304 304 303 303 302 302 302 301 301 301 301 302 303 304 304 305 306 306 306 305 304 304 303 303 303 303 304 305 306 307 307 308 308 307 306 305 304 304 303 302 299 298
325 325 325 327 324 321 323 321 320 324 322 321 322 318 319 323 323 318 316 315 310 306 305 303 302 302 301 301 300 300 299 298 297 297 295 294 294 294 294 294 295 295 296 297 297 297 298 298 298 298 299 299 299 300 300 301 301 301 301 301 300 300 300 300 300 301 301 302 303 303 303 304 304 305 305 305 304 304 303 302 302 302 302 302 303 304 305 305 306 305 304 303 302 301 300 299 298
327 323 322 324 321 321 325 323 322 320 316 323 327 317 316 323 324 317 314 316 312 308 306 303 302 302 300 300 299 299 298 298 297 296 295 294 293 294 293 294 294 294 295 296 296 297 297 297 298 298 298 298 298 299 299 299 299 299 299 299 299 299 299 299 299 300 300 301 301 301 301 302 302 303 303 303 304 303 303 303 302 302 301 301 301 301 302 302 303 304 304 303 302 301 300 299 298
322 319 321 325 323 324 325 323 323 319 316 324 327 319 318 325 329 321 314 317 316 308 305 303 302 302 300 300 299 299 298 298 296 295 294 293 293 293 293 293 294 294 294 294 295 295 295 296 296 297 297 297 297 298 298 299 299 299 298 298 298 297 298 298 299 298 298 299 299 299 299 300 300 301 301 301 301 301 301 301 301 301 301 301 300 300 300 300 301 301 302 302 302 302 300 299 298
316 320 324 327 328 327 325 325 323 319 322 327 325 321 318 322 331 326 316 317 315 308 304 303 302 301 300 299 299 298 298 297 297 295 293 293 293 293 293 293 293 293 294 294 294 294 294 294 294 294 294 295 296 297 297 297 297 298 297 297 297 297 297 298 297 297 297 297 297 297 297 298 298 298 299 299 299 300 299 299 300 300 300 300 300 300 300 300 299 299 299 300 300 301 301 300 299
318 324 325 325 328 328 327 327 323 321 327 329 323 319 316 320 328 323 314 312 310 307 304 302 301 301 300 300 299 298 297 297 297 295 294 293 293 292 292 293 293 293 293 293 294 294 294 294 293 293 292 292 293 294 295 295 295 296 295 296 296 296 296 296 296 295 295 296 296 296 297 297 297 297 297 298 298 298 298 298 298 298 298 299 299 299 299 299 299 299 298 298 298 298 299 299 299
322 323 324 324 325 324 325 326 323 324 326 321 319 318 317 321 321 314 310 308 307 306 303 301 301 301 300 300 299 298 297 296 296 295 294 292 292 292 292 292 292 292 293 293 293 293 293 293 293 293 292 291 291 291 291 292 292 292 292 293 293 293 294 294 294 294 294 294 294 295 295 295 296 296 296 296 296 296 296 296 296 296 297 298 298 299 299 299 299 298 298 297 297 297 297 298 298
318 320 324 325 324 323 326 326 320 320 323 318 316 317 319 322 316 308 306 304 303 303 302 301 301 300 300 300 299 298 297 296 295 295 294 292 292 292 292 292 292 292 292 293 293 293 293 293 293 293 292 292 291 291 291 291 290 290 290 290 290 290 290 290 290 291 291 291 292 292 292 292 293 293 293 294 294 295 295 295 296 295 296 296 297 298 298 298 297 297 296 296 296 296 296 296 297
316 320 322 322 327 327 326 326 321 321 326 320 314 316 325 325 312 304 303 302 301 302 301 301 301 300 301 300 299 299 297 296 295 294 293 291 291 292 292 292 292 291 292 292 292 292 293 293 293 293 292 292 291 291 290 290 290 289 289 289 289 289 289 288 288 288 288 288 288 288 289 289 289 290 290 291 291 292 293 294 294 295 295 295 296 296 296 296 296 295 295 295 295 295 295 295 296
315 318 318 319 326 326 322 325 324 322 325 322 318 321 321 314 306 302 303 302 300 301 301 301 301 300 300 300 300 299 298 297 296 295 294 292 292 293 292 293 292 291 291 291 292 292 292 292 292 292 292 292 292 291 291 290 290 290 290 289 289 289 289 288 288 287 287 287 286 286 286 286 286 287 287 288 288 289 290 290 291 292 293 294 294 295 295 294 294 294 294 294 294 294 294 294 295
316 315 321 322 319 320 322 324 320 318 321 321 321 321 313 309 308 304 303 303 301 301 301 301 301 301 301 302 301 300 299 298 297 296 295 292 292 293 293 293 292 291 291 291 291 291 291 291 291 291 291 291 291 290 290 290 290 290 290 289 289 289 289 288 288 287 287 287 287 286 286 286 286 286 286 286 286 286 286 287 288 288 289 291 292 293 294 294 294 293 293 293 293 293 293 294 294
319 319 323 320 314 317 324 325 322 320 322 321 321 320 316 316 314 305 303 305 303 302 302 301 302 302 303 303 302 301 299 298 298 296 294 292 293 293 293 292 292 292 291 290 290 290 290 290 290 290 289 289 289 289 289 288 288 288 288 288 288 288 287 287 287 287 287 287 287 287 287 286 286 286 286 286 285 285 285 285 285 286 286 287 288 289 290 291 292 293 293 293 292 292 292 293 293
317 320 319 317 319 323 322 321 323 322 320 321 323 321 318 319 316 308 306 306 303 303 303 303 303 303 304 304 303 302 300 298 298 297 295 293 293 293 292 292 292 292 291 290 289 289 289 289 288 288 288 288 288 288 287 287 287 287 287 286 286 286 286 286 286 286 286 286 286 286 286 286 286 286 286 286 286 285 285 285 285 285 285 285 285 285 286 287 288 289 291 292 292 292 291 292 292
313 315 315 316 320 323 321 319 322 323 319 320 322 319 320 322 318 313 308 304 303 303 303 304 304 303 304 305 304 302 301 300 299 299 297 293 292 293 292 291 291 291 291 290 289 289 289 288 288 288 288 288 288 288 287 287 287 287 286 286 286 286 286 286 286 286 286 286 286 286 286 286 286 286 286 286 286 286 286 286 286 286 286 286 285 285 285 285 285 285 286 288 289 291 291 291 292
315 316 317 317 316 316 318 317 319 322 321 320 319 318 322 322 315 310 307 303 302 303 304 305 305 305 305 305 303 302 302 301 300 299 296 293 292 292 291 291 291 291 290 290 289 289 289 289 288 288 288 287 287 287 287 287 287 287 287 287 287 287 286 286 286 286 286 286 286 286 287 287 287 286 287 287 287 287 287 287 287 287 287 287 287 286 286 286 286 285 285 285 285 286 288 289 290
323 322 320 320 319 318 318 317 318 319 319 320 319 319 321 317 310 307 306 303 302 303 306 308 307 307 307 306 303 302 302 301 300 298 294 292 292 292 292 291 291 291 291 290 290 289 289 289 289 288 288 288 287 287 287 287 287 287 287 287 287 287 287 286 286 286 286 286 286 286 286 286 286 286 286 286 286 286 286 286 287 287 287 287 287 287 287 287 287 287 286 286 285 285 285 285 287
Wind_Speed
9 8 7 7 9 7 4 5 3 2 4 2 2 0 3 3 1 2 1 1 0 3 4 2 2 2 1 2 5 5 5 5 5 3 3 5 3 12 19 19 12 13 20 23 28 31 30 29 28 28 26 24 23 23 22 22 20 19 18 18 17 17 17 16 15 14 14 13 12 12 11 11 11 11 11 11 11 10 11 11 10 9 9 8 6 4 3 4 4 3 1 0 2 4 5 6 5
8 6 6 6 6 4 1 3 4 3 5 3 2 1 3 4 3 2 4 3 4 5 3 2 1 0 2 2 3 2 3 5 5 3 2 2 3 13 21 19 14 14 19 22 28 31 31 30 28 28 27 26 25 24 23 23 21 19 18 18 18 19 18 16 15 14 14 13 12 12 12 12 12 12 13 12 12 11 11 11 9 8 8 7 5 3 2 3 4 3 2 2 3 5 6 7 6
7 6 7 5 4 4 1 4 4 2 4 2 3 3 1 2 1 5 7 7 8 5 1 1 1 1 3 4 1 3 3 4 3 2 1 4 4 12 22 18 14 15 18 21 27 31 32 31 29 29 27 27 26 25 24 23 21 19 18 18 19 19 18 17 15 15 14 14 13 12 13 13 13 13 14 13 12 11 11 10 10 9 8 7 5 4 3 2 4 4 4 4 5 6 6 7 6
8 8 9 5 3 4 4 4 2 4 3 2 2 4 2 3 6 6 7 8 6 1 2 1 1 2 3 1 2 1 3 3 3 4 1 8 7 12 21 16 13 16 18 20 26 30 32 32 30 29 27 27 26 24 24 23 21 20 19 19 20 19 17 16 16 15 15 14 13 13 13 14 14 13 13 13 13 12 11 11 11 11 8 5 4 4 3 3 5 5 5 5 5 5 5 5 5
7 7 7 4 3 2 3 3 2 4 2 4 2 4 5 6 7 7 7 6 4 1 2 2 1 2 1 2 2 1 4 2 3 6 4 9 9 13 18 14 15 18 19 20 24 29 32 32 30 30 28 26 25 24 24 24 22 20 20 21 21 19 17 17 16 15 15 13 13 14 14 14 14 13 12 12 12 11 11 12 11 10 7 5 3 2 4 4 5 5 5 4 4 4 4 5 5
6 5 5 5 3 1 3 3 1 2 4 5 3 6 7 6 6 6 5 4 2 2 2 2 0 1 1 3 2 2 4 0 1 5 6 9 10 15 17 13 16 18 19 19 22 28 31 32 31 30 28 26 25 25 25 24 23 21 21 22 21 19 18 17 16 16 15 14 13 14 14 15 14 13 13 12 11 10 11 11 11 10 8 6 4 2 3 5 4 4 4 4 4 3 4 4 4
7 4 3 5 2 2 5 2 2 3 4 5 4 5 6 7 6 2 4 3 2 3 0 1 1 2 2 3 1 2 2 2 3 4 7 10 11 15 16 14 17 18 19 19 21 26 30 32 30 30 28 26 26 25 25 24 23 21 22 22 22 20 19 17 17 17 16 14 14 15 15 16 15 14 14 13 11 9 9 10 10 9 8 6 5 4 3 4 3 3 5 5 4 3 2 2 3
6 2 1 4 2 3 4 1 3 3 3 4 4 5 7 8 5 3 2 1 1 2 1 2 1 2 3 3 1 4 1 4 4 5 8 10 12 16 16 15 17 18 19 19 20 24 29 31 30 30 29 27 26 25 26 25 23 21 22 23 22 21 20 19 18 19 17 15 15 15 16 17 16 15 15 14 12 9 7 7 6 6 6 5 4 4 4 4 4 4 5 5 3 2 2 2 3
4 3 1 4 2 3 3 2 3 3 4 5 3 3 5 5 3 3 1 2 1 2 3 4 0 1 4 4 3 5 1 4 6 7 9 10 12 16 16 16 16 18 19 19 19 22 27 31 31 30 29 28 26 26 26 25 24 22 22 23 23 22 21 20 19 20 19 17 16 16 16 17 16 15 16 14 13 10 7 5 4 3 5 6 6 5 6 5 5 5 6 5 2 2 2 2 3
4 4 2 3 3 3 4 3 2 2 5 5 4 5 6 3 2 3 1 2 2 1 4 3 1 2 3 3 4 3 1 5 7 9 10 10 12 15 17 16 15 17 18 19 19 20 25 29 31 31 30 28 27 27 26 26 25 24 23 24 23 22 22 21 20 21 20 19 18 17 16 18 17 15 16 16 14 11 9 7 5 6 7 9 9 8 7 7 6 6 6 3 1 2 2 3 3
3 4 3 4 4 2 2 3 4 4 7 5 4 7 6 2 3 2 1 2 2 2 3 2 0 3 1 3 4 2 2 7 8 9 10 11 12 15 17 17 16 16 18 19 19 19 22 28 31 31 31 29 28 28 28 27 26 25 24 24 24 23 22 22 22 22 21 20 19 18 17 18 18 16 16 16 14 12 11 9 8 8 9 10 9 8 8 8 7 7 5 3 3 3 3 3 3
3 4 4 4 2 2 3 3 6 5 6 4 3 6 2 1 3 0 1 1 2 4 4 3 2 2 1 4 4 3 3 10 10 8 9 11 11 13 16 18 17 17 17 17 19 20 21 25 30 31 32 31 30 29 29 28 27 26 25 25 25 24 23 22 22 22 22 21 20 19 18 19 19 18 18 17 15 13 11 10 9 9 8 8 8 8 8 9 8 6 5 4 4 4 4 4 4
3 1 4 2 3 3 2 2 5 4 5 3 4 5 1 2 1 4 4 2 1 3 5 6 3 3 1 4 4 5 4 10 10 8 10 11 10 11 16 19 18 17 18 18 19 20 21 24 28 31 32 32 31 30 29 29 28 27 25 25 25 25 24 22 22 21 22 22 21 20 19 19 20 20 19 18 16 14 12 11 10 9 8 7 8 8 8 9 8 7 6 5 5 5 5 5 5
2 2 4 0 1 0 2 2 4 2 3 4 4 5 2 1 3 5 4 3 5 3 3 5 5 2 2 3 4 5 5 10 10 9 10 10 10 12 16 18 18 19 19 20 20 20 22 23 26 29 31 32 32 31 30 30 29 28 26 25 26 26 24 23 22 22 22 22 21 20 19 19 21 21 20 18 16 15 13 12 10 9 8 8 9 9 9 9 8 8 7 5 5 5 5 5 5
3 2 4 2 2 3 2 3 1 3 2 5 3 3 3 3 2 2 3 3 6 5 1 0 4 1 3 1 5 5 4 8 11 11 11 11 11 13 16 17 17 19 20 21 21 22 23 24 26 27 30 33 33 32 32 31 30 29 27 26 26 26 25 24 23 23 22 22 21 20 20 20 21 22 20 18 17 15 14 12 10 9 8 9 11 11 10 10 9 9 8 6 5 5 5 6 6
3 3 5 2 1 2 2 3 1 3 3 5 4 3 3 6 1 1 4 3 4 4 0 2 3 2 4 5 7 6 4 6 12 12 13 13 13 14 16 17 18 18 20 22 23 23 23 25 27 28 30 32 34 34 33 32 32 31 29 28 27 27 26 24 23 23 23 22 22 21 21 21 22 22 21 19 17 16 14 13 11 10 10 10 11 12 12 11 11 11 9 7 6 6 6 6 7
3 4 4 1 1 1 3 4 1 1 5 6 6 4 1 7 4 2 3 1 4 5 3 4 3 2 6 6 6 6 4 8 13 13 13 14 15 14 15 18 19 19 21 23 24 24 24 25 27 29 31 32 34 34 34 34 33 32 31 29 28 28 27 25 24 24 23 23 22 22 22 22 23 23 22 20 18 17 16 15 13 12 11 10 11 12 13 12 12 12 10 8 7 7 7 7 7
4 3 3 1 3 3 5 6 4 2 4 6 6 3 3 5 5 3 4 3 4 6 8 4 4 7 9 12 10 7 5 10 14 15 14 13 14 14 16 18 20 22 23 23 24 25 25 26 27 29 31 33 34 35 35 34 34 33 32 31 30 29 28 27 26 25 25 24 24 23 23 23 24 24 23 21 20 19 18 17 15 13 12 12 12 12 13 13 13 13 11 9 8 8 8 8 9
3 3 2 3 5 5 5 5 4 2 4 6 6 4 3 4 3 2 4 7 6 7 11 5 4 10 11 15 13 8 7 12 15 17 16 15 16 17 18 19 21 23 24 25 26 26 27 27 28 29 31 32 34 35 34 34 34 33 33 32 31 31 29 28 27 26 26 26 25 25 24 25 25 25 24 23 22 20 20 19 16 15 14 13 13 13 14 14 14 13 11 10 10 9 10 10 10
2 3 1 5 7 5 5 6 6 5 5 5 7 4 3 5 3 0 3 8 8 7 11 6 6 10 9 11 9 6 8 12 15 17 17 18 19 20 20 21 23 25 25 25 26 27 28 28 28 29 30 32 33 35 34 33 33 33 33 33 33 32 31 30 29 28 27 27 27 26 25 25 26 26 25 23 22 21 20 19 17 15 14 14 14 13 15 15 15 13 12 12 11 11 11 11 12
1 4 4 7 4 3 7 8 7 6 4 4 7 5 6 6 2 1 2 6 9 9 10 7 9 12 10 10 8 7 9 11 14 16 16 18 21 22 23 24 25 25 24 23 24 27 28 29 29 29 30 31 33 34 35 34 33 33 34 34 34 33 32 31 30 29 28 28 27 27 26 26 26 26 25 24 23 22 20 19 18 17 16 15 15 15 16 16 17 16 15 14 12 12 12 12 13
2 3 6 6 4 3 8 6 4 4 3 6 6 5 6 3 1 3 3 4 8 10 10 9 9 10 10 11 9 6 8 9 12 15 17 19 22 24 26 27 27 25 23 23 24 25 26 28 29 30 30 31 32 34 35 34 33 33 34 34 34 34 34 33 32 31 30 29 28 28 27 27 27 27 26 25 24 23 21 20 19 18 18 17 16 16 17 18 20 19 18 16 13 13 13 12 13
3 4 4 6 5 5 6 4 4 4 4 7 5 4 3 3 6 4 6 10 11 12 13 10 9 10 12 11 9 6 7 8 11 16 19 21 23 26 28 28 28 27 26 25 24 23 24 26 29 30 31 31 32 32 33 34 33 33 33 33 35 35 35 33 33 32 31 30 29 29 28 28 28 28 27 26 25 23 22 21 20 20 19 19 18 18 19 20 22 21 20 17 14 14 14 14 14
5 5 5 6 6 7 7 5 6 5 6 9 4 4 6 5 7 3 7 12 12 14 12 11 12 12 11 9 8 9 9 9 13 19 22 22 25 27 28 28 28 27 26 26 25 24 23 24 27 30 31 32 32 32 32 33 33 33 32 33 34 35 35 34 34 32 31 30 30 30 29 29 29 28 28 26 25 24 23 22 21 21 21 21 20 19 20 22 23 23 22 19 16 15 15 15 15
5 6 5 4 3 6 7 6 8 9 8 7 4 9 11 8 3 4 13 16 14 12 8 9 11 10 7 6 8 8 9 10 13 18 20 22 25 26 27 27 26 23 24 27 25 24 23 23 25 28 30 31 32 32 32 33 33 32 32 32 34 35 35 34 34 33 32 31 31 30 30 30 30 29 28 27 26 26 25 24 23 23 23 22 22 21 22 23 25 25 24 21 18 16 17 16 16
5 6 4 3 5 6 6 7 9 8 6 3 4 13 14 5 2 5 13 16 14 8 6 7 7 10 9 6 7 6 7 10 12 13 13 14 15 18 24 24 21 22 25 26 24 24 22 21 23 24 27 29 30 31 32 32 32 32 32 32 33 34 34 34 33 32 32 32 31 31 31 31 30 30 29 28 28 27 27 25 25 24 24 24 24 23 23 24 26 27 26 24 21 19 18 18 18
4 3 4 4 6 7 4 8 11 7 6 5 5 14 13 3 0 4 10 12 8 6 7 8 5 8 9 7 7 6 7 9 12 13 17 19 18 16 17 17 16 19 21 21 21 22 21 20 21 22 24 26 28 29 31 32 32 31 31 31 32 33 34 33 32 31 32 32 32 31 31 31 31 30 29 29 28 28 28 27 25 25 25 25 25 24 23 24 26 27 27 25 23 20 18 18 19
1 2 6 7 6 8 7 9 10 4 5 6 8 9 9 2 2 7 13 9 4 6 9 10 7 6 7 7 6 8 8 12 17 18 18 18 19 19 18 17 13 12 14 15 17 18 19 19 18 20 22 24 25 26 28 30 31 31 30 31 31 31 31 31 31 31 31 31 31 31 31 31 31 30 30 29 29 29 29 27 26 25 26 26 25 25 24 24 25 27 27 25 23 21 19 20 20
2 4 5 9 7 8 11 8 5 1 3 4 7 4 8 2 6 12 13 7 6 7 9 10 6 4 5 5 7 8 9 14 19 19 17 17 19 21 22 23 17 9 6 7 9 11 13 15 15 17 20 22 23 23 24 26 29 29 29 29 29 29 29 29 30 30 30 30 29 29 30 31 31 31 30 29 29 29 29 28 27 26 26 26 25 24 24 23 25 26 26 25 24 23 21 21 22
4 3 1 6 6 6 9 3 1 1 3 5 6 2 7 6 10 12 10 7 7 8 10 8 5 5 4 5 8 7 10 14 16 18 19 20 22 23 25 26 23 18 11 6 4 4 6 9 11 14 17 19 20 21 22 23 25 27 27 26 27 27 27 28 28 28 28 27 27 27 28 30 30 31 30 29 29 29 29 28 27 27 26 25 25 24 24 23 25 26 26 26 25 24 23 22 23
3 2 1 3 2 5 8 3 0 4 3 5 6 2 6 10 11 11 9 5 4 7 9 7 6 6 5 7 7 7 9 12 15 19 21 22 23 25 27 28 26 23 19 14 10 6 2 3 6 10 13 16 18 19 20 20 22 24 24 23 23 23 24 25 25 25 26 25 25 25 26 27 28 29 29 29 29 28 29 29 28 26 25 25 25 24 24 23 24 25 26 26 26 25 23 22 24
2 1 3 3 2 5 10 7 3 3 4 4 5 3 5 9 11 12 9 4 3 6 8 7 6 6 7 6 7 7 6 11 17 21 22 23 24 26 28 29 28 26 23 20 17 14 10 7 3 3 8 12 14 16 17 18 20 20 21 20 20 20 20 21 22 22 23 24 24 24 25 26 26 27 28 29 29 28 29 29 28 26 25 24 24 24 24 24 24 25 25 25 26 25 24 23 24
3 1 3 3 3 3 6 7 2 2 2 2 3 3 4 6 8 12 11 8 7 6 7 7 6 7 7 5 6 6 6 10 14 20 22 22 23 25 27 29 29 28 26 23 21 21 20 17 13 9 4 3 7 11 13 14 15 15 16 15 15 16 16 17 18 19 20 21 22 22 23 24 26 27 28 29 28 29 29 29 28 26 25 24 24 24 24 24 24 25 25 25 26 26 26 25 26
3 1 3 4 4 3 3 6 6 4 3 0 2 2 5 8 9 13 16 10 7 7 7 5 5 7 6 6 6 6 7 8 10 15 20 21 23 25 27 28 29 28 28 26 25 24 24 22 20 18 15 11 5 2 5 6 8 9 10 10 10 10 11 12 14 16 17 18 19 19 20 21 23 25 26 27 27 28 28 28 27 26 25 24 24 25 25 25 25 25 26 26 27 27 27 27 27
4 4 3 4 3 4 5 5 5 5 3 2 4 5 8 10 9 12 16 10 6 6 4 4 7 7 6 6 7 7 8 8 9 14 18 20 22 24 26 29 30 30 29 28 27 26 25 24 22 21 19 17 13 8 5 4 4 4 4 4 4 4 4 5 7 9 10 12 13 14 15 16 17 19 21 23 24 26 26 26 26 25 25 25 25 25 25 25 26 27 27 27 27 28 28 28 27
7 6 4 4 4 5 7 6 6 3 3 4 7 8 7 8 9 11 14 8 6 6 4 7 6 7 6 6 6 6 8 7 9 15 19 21 22 24 26 28 30 31 31 30 29 28 27 25 24 24 22 18 16 14 12 10 9 8 7 7 6 6 5 3 2 0 2 3 5 7 9 10 11 13 15 18 20 22 23 24 24 25 25 25 25 25 26 27 28 29 29 29 29 28 28 28 26
4 4 3 5 5 7 7 7 7 2 0 6 6 5 6 7 10 12 13 7 7 7 5 8 6 7 6 7 7 7 8 7 10 16 21 22 24 25 26 28 30 31 32 31 31 31 30 28 27 27 24 20 19 18 16 15 14 12 11 10 9 9 8 7 7 6 5 4 4 4 5 6 7 8 10 13 16 18 20 21 22 23 24 24 25 26 27 28 29 30 30 29 28 28 28 27 26
4 4 4 6 6 7 7 6 7 1 1 5 2 3 7 8 11 13 10 7 7 7 5 9 8 8 6 7 7 7 6 6 10 15 20 23 24 25 28 30 31 30 31 31 31 30 29 29 28 27 24 22 22 20 18 17 16 13 12 11 9 8 8 7 7 7 6 6 6 6 6 6 7 7 8 9 12 14 16 18 19 21 22 23 25 26 28 28 28 29 29 28 27 27 27 27 26
4 3 3 5 4 4 7 6 5 2 1 5 3 3 7 10 10 8 9 8 6 8 8 8 7 9 7 6 6 6 7 7 9 11 16 20 22 25 28 29 30 30 30 31 30 29 28 28 27 25 24 23 22 19 17 17 15 13 12 12 10 10 11 9 7 6 5 5 6 7 7 7 7 8 8 8 10 12 14 16 18 19 20 21 24 25 27 27 28 28 28 28 27 25 25 25 25
4 4 3 5 3 1 4 5 4 3 1 2 3 4 6 9 7 6 9 7 8 10 12 11 8 9 7 6 6 6 7 8 8 9 11 16 21 24 26 27 28 30 32 32 30 30 29 28 26 25 23 22 21 19 17 15 13 11 11 11 10 11 11 8 7 7 6 6 6 7 8 8 8 8 8 9 9 10 12 14 16 17 18 19 21 23 24 26 27 28 28 29 28 24 24 25 26
4 6 6 6 5 5 6 4 4 4 4 2 3 5 4 6 5 3 5 5 8 8 10 11 8 7 6 6 7 7 7 7 7 7 8 12 18 21 24 25 27 30 31 30 29 29 29 28 26 24 23 22 20 19 16 14 13 12 11 11 11 12 12 11 11 12 11 8 7 7 7 7 8 8 9 9 9 10 11 12 14 15 17 18 19 20 22 23 25 26 27 29 29 27 26 26 26
5 5 9 10 8 7 5 2 4 4 4 3 4 4 4 5 4 3 3 4 7 6 8 9 7 6 5 6 7 6 7 6 6 7 8 11 15 18 23 25 27 29 28 28 29 29 29 28 27 26 25 23 21 19 16 14 15 16 15 16 16 17 18 18 17 17 15 13 10 7 6 6 6 7 8 9 9 10 10 11 12 13 15 16 18 19 19 20 22 24 25 27 29 30 29 25 24
4 5 8 9 6 4 3 3 3 0 3 3 4 1 5 5 5 3 5 5 6 5 7 7 5 5 5 5 5 5 6 6 6 7 8 11 14 17 21 24 26 26 25 27 30 30 30 30 29 28 27 26 23 21 18 16 17 17 18 19 19 19 19 18 16 16 15 14 11 9 8 6 5 5 6 7 8 10 10 11 11 12 13 14 16 17 17 18 19 21 23 25 27 28 29 25 24
4 5 4 6 6 5 4 5 2 3 3 4 2 2 3 4 5 4 5 7 5 5 5 5 5 5 5 5 5 5 5 5 5 6 8 11 15 17 19 23 25 25 25 28 31 31 31 30 30 29 28 27 25 23 22 21 20 19 19 19 19 19 18 16 14 13 12 11 11 11 10 8 6 5 5 5 6 8 9 10 11 12 12 13 14 15 16 16 17 18 19 21 24 25 27 27 26
6 5 6 6 5 5 4 5 2 1 1 5 4 1 2 5 5 5 2 5 3 4 4 4 4 4 4 4 5 5 5 5 5 5 7 11 15 17 18 22 25 24 25 28 30 30 30 30 29 29 29 28 26 24 24 24 23 22 21 21 21 19 17 16 14 13 13 11 11 11 11 10 9 7 5 5 5 7 8 10 10 11 12 13 14 15 15 15 16 16 17 18 20 22 25 27 27
4 4 5 4 5 5 4 4 3 2 1 5 6 3 2 5 5 3 1 2 4 4 4 3 4 4 4 4 4 4 4 4 4 6 8 11 14 15 17 21 24 23 24 27 29 29 30 30 30 30 30 28 27 25 24 24 23 23 23 22 22 21 19 18 18 18 17 16 15 14 12 11 10 9 8 7 6 6 7 9 10 11 12 13 14 15 15 15 15 15 16 16 17 19 22 25 27
4 5 5 6 5 4 3 2 4 2 3 6 8 8 5 3 5 3 2 2 6 8 5 4 4 4 4 3 3 3 3 3 3 5 8 11 12 14 17 21 22 21 24 27 28 28 28 29 29 31 30 28 28 26 26 26 25 24 24 23 23 22 21 21 21 22 21 20 19 18 16 14 12 11 9 8 8 8 8 9 10 10 11 11 12 13 15 16 16 16 16 16 16 17 19 21 25
5 5 4 3 4 4 4 4 3 1 5 6 5 5 5 4 5 2 3 4 4 9 8 8 7 4 4 3 3 3 2 3 3 4 5 8 10 13 16 19 20 21 24 26 26 26 26 27 28 29 29 28 28 27 27 27 27 26 25 24 24 24 23 23 24 24 23 22 22 21 19 17 16 15 13 12 12 12 12 12 12 12 11 11 11 12 13 15 16 17 17 17 17 17 17 19 21
5 4 5 3 3 3 3 3 0 3 6 4 4 5 2 5 4 3 5 6 3 7 8 9 9 6 5 4 3 2 2 2 3 3 4 5 8 11 14 17 18 21 23 24 24 24 24 24 25 27 27 26 26 27 27 28 28 27 26 26 25 24 24 24 24 24 23 23 22 22 22 22 21 20 19 19 17 16 15 15 14 13 13 12 11 11 11 13 14 16 17 19 19 18 18 18 20
4 5 4 4 2 0 3 4 2 4 5 3 3 3 2 4 2 4 5 5 3 7 9 8 8 7 6 4 3 2 1 1 1 2 2 3 7 10 13 15 17 20 22 22 22 21 21 22 22 23 24 23 24 25 25 26 26 25 24 24 24 23 24 23 23 22 21 21 21 21 21 21 21 21 21 21 20 19 17 16 15 14 13 13 12 11 12 12 14 15 17 19 20 19 19 19 20
4 5 5 4 4 4 4 4 3 4 5 4 2 1 2 3 1 3 3 4 4 6 7 6 6 5 4 4 3 3 2 1 1 2 2 5 9 11 14 16 18 19 20 20 20 19 19 20 20 20 21 21 21 22 22 23 23 22 22 22 22 22 22 22 22 21 20 20 20 20 19 19 19 19 19 19 19 19 19 18 17 16 14 13 13 13 14 14 15 17 18 19 19 19 18 19 19
2 3 5 2 4 5 3 3 5 3 3 3 2 2 2 3 1 2 3 5 5 5 5 6 5 4 3 4 3 3 3 3 2 2 3 7 11 13 15 16 17 19 19 19 19 18 17 17 17 18 18 17 18 18 19 19 18 18 19 19 19 19 19 20 20 20 20 20 20 20 21 20 20 19 19 19 19 19 19 18 18 18 17 15 14 14 14 15 16 17 18 19 20 19 18 18 19
2 3 3 4 4 6 2 3 0 3 2 4 2 2 2 1 1 2 5 5 4 4 4 5 5 4 4 4 4 4 4 4 3 3 4 7 11 13 14 15 16 16 17 17 16 15 14 14 14 14 14 14 14 14 14 14 14 14 14 15 15 15 16 17 17 18 18 18 19 20 20 21 21 22 22 22 22 21 20 20 19 19 18 18 17 16 15 15 16 17 17 19 19 19 19 19 18
5 2 5 3 1 3 3 1 3 2 3 4 1 3 3 1 2 0 4 4 4 4 4 5 4 4 4 5 5 5 4 4 3 4 5 8 10 11 12 12 12 12 13 13 12 11 11 11 11 11 12 11 11 11 11 11 11 11 12 12 12 12 13 13 14 15 15 16 17 18 19 20 21 21 22 23 23 23 23 23 22 21 21 20 19 18 18 16 16 16 16 17 18 18 19 19 19
4 3 3 2 1 1 1 2 2 2 4 4 4 5 4 4 4 4 6 9 9 7 6 5 6 6 6 6 5 5 3 2 3 3 4 6 9 9 10 9 9 8 8 9 9 9 9 9 10 10 10 9 9 8 8 8 9 9 9 10 10 10 10 11 11 12 13 14 15 16 17 17 18 20 21 22 23 24 24 24 24 24 23 22 21 21 21 20 19 18 17 17 17 17 19 20 19
3 1 2 2 2 3 2 2 2 3 4 5 6 6 4 4 5 8 11 12 11 9 7 6 7 7 6 5 5 4 3 2 2 3 3 5 8 8 7 7 6 7 6 6 6 7 7 8 8 8 7 6 6 5 5 5 5 5 5 6 7 7 8 9 10 11 12 13 13 14 15 15 16 18 18 19 21 22 23 24 25 26 26 26 25 24 24 24 23 21 20 19 19 18 19 20 20
2 1 1 1 0 1 1 1 2 3 3 4 6 7 5 3 2 7 10 9 10 9 8 7 7 6 6 5 4 4 4 4 4 3 4 6 8 7 6 6 6 6 6 6 5 5 5 5 5 6 5 5 5 4 4 3 3 3 3 4 5 6 7 9 10 10 11 12 13 14 14 15 15 16 16 17 18 18 20 21 22 24 25 26 27 27 27 27 27 26 25 24 23 22 21 21 21
5 3 3 3 2 2 1 4 1 2 3 3 4 7 5 2 2 4 6 8 10 10 9 7 7 7 7 5 4 5 5 5 4 4 5 7 8 8 7 6 6 6 5 5 4 3 3 3 3 3 2 3 3 3 3 2 2 2 2 3 4 6 6 8 9 9 9 10 11 12 13 14 15 15 16 17 17 18 18 19 20 22 23 24 25 26 27 28 29 29 29 28 27 26 25 24 23
Wind_Direction
319 326 334 327 327 336 4 61 51 334 73 58 301 322 263 262 5 83 320 298 360 260 227 216 176 139 108 182 196 198 185 177 173 132 206 246 179 179 183 188 186 172 180 183 187 187 182 183 183 182 182 181 180 180 179 177 178 182 182 176 171 171 167 163 162 160 156 153 152 150 151 152 154 153 152 158 156 155 151 145 140 133 130 122 116 116 131 152 156 154 153 272 317 318 321 321 323
333 333 351 336 337 2 308 70 83 339 47 51 298 191 267 325 30 161 211 208 206 240 219 205 235 228 68 126 172 142 237 222 183 169 239 228 153 182 183 192 200 182 179 181 186 187 184 185 185 184 183 183 182 181 181 181 183 186 185 179 175 172 167 166 166 164 159 157 157 159 163 162 161 161 160 160 157 156 146 138 133 125 126 125 126 137 134 159 178 184 211 247 277 289 297 300 300
355 347 359 354 360 41 36 43 83 45 67 75 291 251 301 22 207 216 218 218 222 227 89 144 288 230 75 33 141 131 261 266 180 196 313 165 163 184 185 194 204 191 182 181 186 188 186 186 186 186 185 185 183 182 184 184 186 188 187 182 177 171 169 170 169 166 163 162 164 169 172 166 165 164 159 154 151 149 142 140 141 141 141 132 136 147 140 187 218 219 237 253 266 277 282 284 285
4 353 354 11 34 29 55 46 113 109 103 171 277 278 281 178 210 235 234 240 246 226 77 134 322 215 125 346 244 158 265 287 204 185 178 186 179 183 187 196 197 190 187 185 188 190 189 187 187 188 187 187 184 184 186 186 187 188 187 184 176 172 174 174 171 169 166 167 172 176 176 169 165 160 154 151 148 147 148 153 159 163 154 140 155 178 209 245 253 243 248 260 263 267 266 264 264
357 359 356 30 71 29 81 74 97 95 176 189 171 281 256 207 210 234 261 277 271 225 159 136 332 280 156 222 193 167 241 282 241 204 191 189 176 181 191 198 188 187 190 190 191 192 192 189 189 189 188 189 186 187 188 187 188 188 187 183 177 175 179 177 174 173 170 173 179 182 181 172 163 159 160 159 155 160 166 167 172 172 159 153 169 222 257 262 266 256 259 271 269 265 258 249 242
3 19 21 44 83 112 84 60 8 302 234 176 174 258 238 224 214 214 295 315 284 236 188 129 180 322 318 253 189 192 219 89 227 210 193 177 165 178 193 196 187 187 190 193 195 196 194 191 191 190 190 190 189 190 190 190 191 190 187 184 180 178 181 180 177 177 175 178 186 188 184 175 165 166 171 173 174 184 188 184 185 183 179 179 169 197 263 268 263 261 274 283 282 273 260 249 233
7 15 23 51 40 51 82 111 209 261 248 181 182 235 228 231 218 160 352 344 353 325 210 223 153 85 295 290 291 244 228 221 207 189 177 166 158 173 189 192 188 190 190 194 197 199 197 194 193 191 191 191 191 193 192 191 193 193 189 186 184 181 183 184 182 182 179 183 192 195 188 176 171 172 176 186 194 197 197 193 194 197 202 203 188 189 222 253 246 245 270 284 290 273 248 229 209
11 15 26 79 29 24 80 131 223 218 253 233 201 218 226 224 204 109 12 297 321 309 332 284 65 84 287 356 298 257 264 224 208 167 164 161 160 170 186 191 191 192 192 194 195 200 200 197 195 193 193 192 192 195 195 193 195 195 191 189 187 184 185 187 187 185 181 185 196 201 194 179 176 179 181 191 202 205 204 202 204 211 211 209 213 209 207 218 223 229 258 282 292 267 224 189 181
26 37 57 76 55 22 37 319 287 233 263 287 272 246 252 229 176 100 94 318 336 275 280 258 88 31 294 351 279 269 322 197 174 157 159 162 165 171 185 192 195 194 193 194 194 198 200 199 198 196 196 193 194 196 198 197 198 199 194 191 189 188 188 188 189 187 184 187 196 204 201 185 179 183 188 196 204 213 224 230 229 220 217 221 237 242 222 211 209 222 251 277 286 242 193 174 171
29 32 82 72 66 28 354 301 292 272 267 285 282 263 268 243 111 74 89 318 339 322 280 224 89 299 289 311 273 294 297 184 162 162 163 162 167 175 187 194 199 198 195 196 195 197 199 201 200 199 198 196 196 198 200 200 200 202 197 193 192 192 193 192 190 189 186 187 195 203 204 190 183 185 192 201 205 217 232 235 222 213 228 239 251 253 231 210 206 223 248 260 223 199 174 169 168
35 356 82 76 58 41 310 269 285 282 280 302 290 260 252 223 94 63 45 332 332 345 293 118 43 259 313 295 263 296 234 196 182 178 170 167 173 180 189 194 200 204 201 200 198 198 199 202 202 201 201 199 198 200 202 201 202 203 200 196 196 195 196 198 195 193 188 189 196 202 205 195 188 188 194 205 210 220 232 231 224 226 239 249 250 236 216 207 210 224 237 212 177 185 171 172 168
69 339 61 88 110 198 212 253 283 283 297 314 281 270 248 110 69 44 334 319 330 337 282 181 175 180 52 296 265 306 237 204 196 189 185 180 180 183 190 193 198 206 208 205 202 200 199 201 204 204 204 202 201 202 204 204 204 204 202 200 200 199 199 202 200 197 192 192 198 201 206 199 191 193 199 208 213 222 232 231 230 240 251 252 235 208 207 212 213 219 218 187 174 180 176 177 173
96 120 79 94 180 186 207 237 280 314 326 290 235 282 20 67 297 208 186 237 277 337 276 209 157 106 211 268 285 322 257 211 200 204 205 189 183 183 189 193 195 204 209 210 208 205 201 201 204 206 206 205 205 205 206 206 206 207 206 203 203 204 204 205 203 201 199 197 201 204 206 199 194 199 204 209 212 221 230 230 233 246 255 247 221 200 208 216 211 212 204 182 177 178 181 182 179
110 141 101 53 271 132 212 243 303 14 316 272 248 290 346 344 236 191 166 290 269 221 249 201 143 98 255 286 316 310 259 219 202 208 208 189 187 185 188 193 197 201 208 213 214 211 206 204 204 207 208 207 207 207 208 208 208 209 209 207 206 208 207 208 207 204 203 201 204 207 207 202 199 204 207 209 213 220 225 229 237 248 251 242 229 210 207 212 208 213 203 182 180 181 185 189 188
119 116 91 95 348 344 233 237 302 120 229 266 266 313 341 292 212 189 207 241 262 228 250 204 135 177 229 220 267 264 265 219 200 201 199 192 192 190 191 194 200 203 209 214 217 217 211 208 206 207 209 208 209 209 210 210 210 211 211 210 208 209 210 210 210 207 206 205 206 209 210 207 207 209 211 213 217 222 226 233 242 248 248 245 242 224 209 208 209 216 208 186 181 185 191 193 194
108 103 69 58 307 325 243 227 92 96 261 258 282 346 337 297 326 271 245 176 276 278 249 224 181 218 203 199 246 273 312 213 197 198 194 192 194 195 197 197 203 207 210 214 217 219 215 213 210 209 209 209 211 211 211 211 211 212 212 212 210 210 211 211 211 210 209 208 209 211 212 211 211 212 214 217 221 226 232 239 244 247 249 250 249 233 216 209 213 220 210 190 184 188 196 197 198
65 78 73 24 229 225 220 212 139 68 275 273 305 338 254 298 315 270 285 111 280 291 275 242 239 234 208 228 269 310 308 205 197 197 191 191 195 199 201 202 205 208 210 213 217 219 217 216 214 213 211 210 212 213 213 212 212 213 214 213 213 212 212 214 214 212 211 211 212 212 213 213 212 213 216 219 223 229 237 243 244 245 250 254 254 240 222 211 215 222 209 192 190 190 198 199 199
54 78 110 217 201 207 195 193 199 176 268 276 300 299 194 279 301 307 325 316 308 308 286 264 281 273 249 258 279 302 263 206 198 194 189 190 194 200 204 204 207 210 211 213 216 217 219 219 218 216 214 213 213 214 214 213 213 214 215 215 214 214 214 215 215 214 213 212 213 212 213 214 215 215 216 220 224 230 237 242 242 242 249 255 257 244 226 215 216 223 211 197 194 191 199 200 199
95 118 143 225 203 216 198 199 222 199 257 272 288 269 209 245 266 334 308 293 327 321 290 285 283 278 275 272 276 283 229 202 201 194 192 195 199 204 207 208 209 214 213 214 218 218 220 221 220 219 217 216 214 215 214 214 214 214 216 216 216 216 215 216 216 216 215 215 214 213 214 215 216 217 218 222 226 231 238 241 241 243 248 254 258 247 229 217 216 220 211 201 197 193 201 202 202
166 128 178 241 217 234 245 238 242 230 236 272 288 285 267 256 233 305 293 298 312 292 280 286 280 276 278 275 273 263 216 203 204 200 202 206 211 214 215 214 215 220 221 221 222 221 222 222 222 221 220 218 217 216 215 215 216 216 216 216 217 217 217 217 217 217 217 218 216 215 216 216 217 218 220 224 228 233 236 238 238 241 245 250 254 246 232 220 217 217 211 207 199 197 204 205 206
185 143 191 234 203 232 261 252 247 242 234 268 289 316 307 271 209 236 290 315 303 280 264 242 254 273 278 276 271 242 214 210 209 210 216 219 224 226 227 228 230 234 232 229 228 225 225 224 224 223 222 220 219 218 216 216 217 217 217 217 218 219 218 218 218 218 219 219 219 218 219 219 219 219 221 225 229 232 233 234 234 237 241 246 248 244 234 223 222 220 217 213 201 200 207 207 209
171 214 216 231 178 217 262 251 250 278 306 300 296 301 289 290 296 238 218 253 268 274 270 244 237 258 271 278 278 241 210 219 220 219 223 228 233 234 236 238 239 240 236 234 234 232 230 229 228 225 224 222 221 222 220 219 218 219 219 218 219 220 220 220 219 219 219 221 221 221 221 221 220 220 223 226 229 231 232 234 235 238 242 245 245 243 237 228 227 225 224 219 204 203 208 209 213
217 268 250 245 220 229 269 278 295 323 317 289 280 282 299 341 304 247 215 236 244 261 273 273 263 261 270 278 279 258 231 229 228 229 230 233 238 241 244 244 243 241 236 238 239 237 234 232 230 227 226 225 224 224 224 222 220 221 222 220 219 220 221 221 220 220 221 222 222 223 223 223 223 222 224 226 229 230 233 236 240 244 247 248 246 244 240 234 231 230 230 224 209 208 211 212 215
205 260 273 260 238 232 261 288 294 290 265 262 267 311 303 284 291 292 253 254 251 260 273 283 282 280 279 278 272 268 263 248 240 245 244 242 247 252 255 253 251 245 238 242 243 238 236 235 231 228 228 228 228 226 225 225 224 223 223 222 221 220 220 220 221 222 222 224 224 225 225 226 226 226 227 229 231 232 235 240 245 249 251 251 248 246 243 237 234 233 233 228 217 213 214 216 217
200 231 262 275 267 246 264 277 274 273 263 266 298 294 277 254 259 288 270 269 266 267 283 287 293 304 294 274 271 275 279 271 263 262 262 261 262 263 261 258 255 245 240 244 243 240 239 237 231 229 229 229 230 228 226 226 227 226 224 224 223 221 220 221 222 223 224 225 225 226 227 228 228 228 229 231 234 235 237 242 246 249 252 252 250 247 245 241 236 234 234 232 227 221 219 220 220
214 208 237 274 288 278 284 282 271 276 268 268 303 283 280 272 225 258 262 260 267 291 313 294 310 314 306 300 288 293 299 301 304 303 310 313 303 285 274 270 262 249 249 248 243 244 243 237 233 233 231 229 229 228 228 227 227 227 225 225 224 222 221 222 223 224 226 227 227 228 228 229 231 231 232 233 235 236 237 241 245 248 252 252 251 249 249 246 240 236 235 235 233 229 226 226 226
219 222 278 276 287 288 277 274 276 288 278 241 239 269 281 311 180 266 263 252 272 333 316 301 319 302 303 315 318 352 357 350 356 5 9 7 4 343 317 307 289 269 264 256 247 247 242 238 238 238 234 230 228 228 229 229 228 228 227 226 226 225 225 225 225 226 228 229 230 230 230 232 233 234 235 236 237 238 238 240 244 247 248 249 249 250 251 250 245 240 239 239 238 236 232 232 232
240 343 320 302 318 307 273 268 276 294 286 220 182 256 290 343 174 241 257 260 320 339 304 303 318 303 300 313 358 34 30 24 29 34 25 13 10 6 8 2 334 298 284 273 264 255 244 242 243 242 236 230 228 229 230 230 229 229 229 229 229 230 229 229 229 229 230 231 233 234 234 234 235 237 238 240 240 241 241 241 244 247 249 248 248 251 252 253 249 243 241 242 244 245 241 237 235
337 30 336 303 345 322 280 273 267 202 259 192 144 289 307 247 217 241 256 281 334 326 297 296 315 329 310 335 44 52 34 33 34 33 24 18 18 19 25 26 24 15 340 301 288 273 255 250 248 244 238 231 230 231 232 232 231 229 229 230 231 232 233 233 232 232 234 235 236 236 237 237 238 239 240 242 243 244 243 243 247 251 252 250 249 251 252 253 250 244 242 243 246 247 245 238 233
314 9 342 300 352 315 280 276 348 304 239 173 137 290 290 260 249 255 270 295 318 309 290 296 335 358 353 38 65 53 35 34 33 29 24 24 25 26 31 34 41 46 44 39 359 308 272 260 253 247 240 236 233 232 233 233 232 229 230 230 231 232 233 235 235 236 238 240 241 240 238 239 240 242 243 243 244 245 244 245 249 253 252 249 249 252 253 253 251 246 243 244 247 247 245 239 232
312 322 316 319 324 279 291 291 342 322 274 157 146 219 262 274 280 278 282 285 282 284 289 312 344 356 30 65 73 57 41 36 33 31 28 28 29 31 35 38 45 50 52 54 50 47 21 284 263 253 246 241 236 233 234 234 233 230 230 231 231 233 233 235 237 238 240 242 244 243 242 242 243 244 244 244 244 244 245 246 250 253 252 250 250 252 254 253 251 250 247 246 248 247 246 242 237
6 302 304 325 205 265 305 295 199 236 283 115 136 222 266 274 282 287 292 297 280 283 301 329 351 23 62 73 66 60 42 35 34 30 27 30 32 34 37 41 46 50 53 58 62 67 67 61 35 277 254 246 239 235 234 233 234 233 233 234 234 235 235 236 237 238 240 242 243 244 245 245 244 244 243 243 244 244 245 246 249 250 251 251 252 252 253 254 252 251 249 248 248 247 246 244 241
344 183 250 272 227 264 315 304 270 190 253 90 145 226 278 277 283 294 296 298 305 305 314 335 15 56 72 64 54 57 38 31 29 23 24 29 35 39 42 44 48 52 56 61 67 71 71 69 66 60 48 268 246 238 234 233 235 235 236 236 236 238 239 241 241 240 241 243 243 243 244 243 243 243 243 243 243 244 245 246 247 247 248 251 253 253 253 255 254 251 250 249 248 247 246 245 244
310 271 228 246 235 238 292 295 316 28 78 241 283 240 251 273 290 296 291 295 320 316 317 352 66 80 73 65 58 51 42 37 24 16 19 27 37 43 47 50 53 57 59 63 67 70 70 69 69 66 61 56 49 238 228 229 230 231 231 230 231 232 236 240 242 242 243 244 244 243 241 241 241 242 243 244 244 244 244 244 245 245 247 250 251 253 254 254 253 251 250 249 248 247 247 247 247
248 258 245 267 264 245 258 264 290 346 13 284 293 283 264 275 285 284 283 298 333 313 333 65 98 93 77 70 63 54 51 44 27 18 22 30 38 45 51 55 57 59 60 64 66 68 67 66 66 64 62 62 65 75 94 110 131 152 172 180 191 198 216 229 235 241 244 248 249 247 245 243 243 244 244 245 243 243 242 242 244 245 248 249 249 250 251 250 249 249 248 247 245 245 247 249 250
224 241 228 251 271 259 254 255 261 285 326 281 268 275 274 279 283 278 281 306 342 327 38 89 103 92 82 73 66 58 57 47 28 28 33 36 39 45 52 57 60 61 61 63 65 64 63 63 63 60 58 62 68 71 73 77 83 87 90 92 88 81 78 81 79 330 278 276 272 268 263 258 255 252 249 247 245 245 245 244 245 245 246 247 247 249 251 251 251 250 248 246 243 242 244 245 247
230 249 248 249 255 266 261 261 268 231 180 268 254 268 279 279 282 279 287 329 355 341 59 99 98 87 80 73 70 61 58 46 36 37 39 39 41 46 50 55 60 62 61 62 63 62 62 63 63 61 58 60 62 60 60 62 63 64 66 66 61 59 58 55 53 43 32 20 358 337 315 302 292 280 267 258 254 253 252 251 250 249 248 249 251 254 255 254 251 249 248 245 242 240 240 242 242
236 238 258 268 251 259 263 256 276 316 158 266 301 331 291 284 282 288 314 7 358 340 80 105 94 84 73 68 65 60 58 40 39 39 37 39 41 45 48 51 55 56 57 60 62 63 65 65 64 63 63 63 63 61 62 63 63 64 68 68 64 61 56 49 47 40 28 19 9 359 350 340 333 321 303 285 274 269 264 262 261 259 257 257 257 256 254 251 248 246 244 242 242 241 242 243 239
218 215 227 257 251 278 284 274 297 357 202 271 343 342 288 282 283 318 10 44 27 17 68 83 80 81 66 60 60 57 57 40 38 37 34 38 40 45 48 49 51 53 55 58 62 64 65 66 66 66 66 66 66 66 66 67 70 73 77 78 79 77 70 62 60 55 45 35 22 9 360 352 345 339 329 315 299 289 283 280 278 273 269 265 261 258 254 252 250 247 244 244 243 240 241 242 238
208 214 216 249 255 280 277 284 309 332 305 284 333 314 284 278 280 28 37 58 62 47 62 63 60 72 63 59 60 55 59 48 41 36 29 37 41 44 47 47 50 53 53 54 57 60 62 64 67 69 69 68 67 67 67 71 75 79 84 87 90 89 82 78 75 62 51 47 42 30 20 12 4 356 346 338 326 314 305 298 294 290 286 279 272 266 262 259 256 253 250 247 243 239 239 241 240
239 222 220 243 244 216 230 280 319 337 356 17 14 331 300 276 269 79 52 49 64 51 60 61 51 61 62 61 59 52 58 51 45 40 25 34 43 45 48 50 52 53 53 53 55 58 61 64 66 69 71 70 69 67 66 72 76 78 86 87 84 80 70 63 58 50 45 46 49 47 38 28 19 11 1 353 344 334 323 313 307 302 299 294 286 279 273 269 264 259 256 251 245 241 241 243 242
278 234 214 224 230 226 228 333 8 12 337 335 37 355 296 301 298 152 129 52 58 46 51 61 50 46 51 54 53 47 51 49 45 41 27 32 43 49 51 51 53 54 54 56 59 62 63 64 65 66 67 67 68 68 66 69 70 68 70 69 64 60 55 51 49 46 47 49 52 58 59 51 39 27 14 5 357 348 339 329 321 313 308 303 298 292 284 277 271 266 261 255 250 247 245 244 242
275 247 207 206 203 204 187 99 61 107 254 289 58 103 268 311 314 205 146 94 73 64 54 59 53 45 47 49 47 42 41 38 40 40 33 33 37 44 49 50 51 53 56 62 64 64 64 64 64 64 64 64 64 66 68 68 69 67 67 67 63 60 58 55 52 52 52 51 54 59 63 63 54 39 25 14 4 355 349 344 336 328 320 315 308 302 296 290 283 276 270 262 258 254 247 243 244
238 241 158 146 151 168 158 117 133 219 251 316 3 161 264 291 279 254 140 115 86 78 74 66 64 54 48 46 43 46 43 31 35 40 37 36 35 38 45 51 54 54 57 64 66 65 65 64 65 65 65 64 63 65 67 68 70 70 71 71 68 64 61 58 55 55 54 51 53 53 53 55 51 37 19 4 353 344 341 340 338 336 331 326 320 313 308 303 295 287 279 270 265 260 252 246 247
239 213 134 126 140 149 131 108 127 271 360 308 292 159 265 262 267 297 116 135 144 135 124 102 92 81 62 51 41 41 43 38 37 42 39 39 41 43 48 55 59 59 60 64 66 68 69 68 68 68 66 65 65 67 69 69 70 69 68 67 65 63 61 59 57 56 55 52 52 50 46 45 45 42 31 8 342 329 325 323 322 324 326 326 324 321 317 312 305 298 291 283 275 269 263 256 251
223 156 106 65 70 88 84 102 111 33 6 250 239 183 211 267 281 303 77 165 191 161 131 116 109 100 87 71 54 41 36 37 42 53 50 48 51 53 56 61 63 63 64 67 68 67 67 67 67 67 64 63 64 66 69 69 69 69 65 61 59 57 55 56 55 51 48 48 48 45 41 37 34 33 32 24 4 348 335 325 319 315 314 316 317 318 319 317 315 309 303 296 287 279 273 267 259
126 100 61 28 26 46 47 70 89 58 275 246 225 193 179 275 286 225 197 231 179 152 140 144 127 106 103 89 74 63 44 35 32 54 62 60 63 62 62 63 62 63 65 67 67 66 66 66 66 65 63 62 63 63 65 66 65 65 63 60 57 53 50 49 48 43 39 38 37 35 34 33 29 25 21 16 7 358 347 338 330 320 313 311 311 314 315 316 316 315 313 307 299 290 283 277 270
95 87 65 36 340 9 25 358 46 123 255 264 228 180 155 218 267 276 311 319 140 145 155 156 148 141 132 110 92 78 61 56 37 44 61 63 63 61 61 61 59 59 62 63 62 63 64 64 66 65 62 61 61 62 63 64 63 63 62 61 60 56 53 51 49 45 40 37 34 31 30 29 26 23 18 12 6 357 349 342 336 329 323 314 310 310 312 313 313 312 312 310 307 302 295 287 279
82 97 85 72 326 347 353 306 342 213 254 264 167 139 152 226 248 343 348 347 51 126 141 148 148 151 148 135 123 99 65 72 62 54 56 60 62 59 58 58 56 57 58 60 60 59 60 60 63 64 60 59 60 60 61 61 61 61 60 61 60 59 57 56 54 51 47 44 40 36 34 31 28 26 23 19 13 5 355 347 341 337 333 325 315 309 308 312 313 312 311 308 307 305 303 298 289
136 144 128 123 140 212 269 264 272 265 270 268 165 147 276 260 287 353 348 346 36 111 125 140 143 145 152 152 149 135 92 75 87 98 82 69 69 64 62 59 55 56 57 59 59 57 57 56 56 59 58 56 57 57 57 58 58 57 56 57 57 56 56 56 55 53 51 49 47 44 41 37 33 30 28 26 22 17 11 2 352 341 332 326 318 311 308 309 310 309 307 305 304 302 302 303 299
174 155 136 147 158 177 232 231 220 257 279 292 259 192 221 220 293 335 360 19 51 97 112 120 122 134 146 147 156 166 161 180 191 149 102 73 68 65 63 59 56 56 57 58 58 56 56 53 52 54 53 51 52 53 53 54 55 54 53 52 51 51 52 52 52 50 49 48 47 46 44 40 37 34 31 29 26 22 20 16 9 359 346 333 322 314 310 308 307 305 303 302 301 301 300 299 300
205 127 114 172 186 172 221 220 181 190 287 291 240 214 210 164 107 358 53 60 59 77 95 108 119 137 142 152 179 189 185 187 175 126 82 66 64 61 58 57 56 56 56 56 54 54 55 54 53 53 51 50 49 48 48 48 48 47 45 43 42 41 40 40 41 40 40 39 37 37 36 34 31 29 28 27 25 24 21 18 16 12 6 357 345 333 323 316 312 307 305 304 302 302 302 300 299
169 119 175 218 181 133 129 269 215 94 268 267 199 214 285 85 67 33 73 77 74 87 109 129 152 166 167 186 198 198 193 173 144 112 88 73 67 62 58 57 57 56 56 55 55 56 58 58 59 59 56 55 52 48 46 44 42 41 39 38 35 33 31 31 31 30 29 28 27 26 24 21 19 17 17 17 17 18 17 15 13 11 8 6 1 354 345 335 325 317 312 309 307 306 304 302 301
127 168 217 210 140 84 95 241 329 18 254 274 291 240 246 213 240 26 104 130 158 173 167 168 191 198 197 206 210 211 197 161 125 103 93 87 78 70 67 65 64 65 64 63 65 68 72 73 73 72 68 65 61 58 55 51 48 45 42 40 37 34 32 28 26 23 19 17 17 17 14 12 10 8 7 7 6 6 7 7 7 6 5 3 1 358 355 349 341 333 326 318 314 313 308 304 303
127 197 222 117 149 258 83 169 236 255 254 281 289 266 242 202 200 186 184 185 183 185 185 192 206 207 209 214 220 224 196 138 114 104 97 93 89 82 80 79 79 82 83 83 84 86 87 84 81 79 76 73 71 69 67 62 57 51 45 40 37 34 31 28 26 22 19 18 16 13 10 6 4 2 359 359 357 356 356 356 356 356 356 356 356 355 353 351 348 344 338 331 325 320 314 310 307
61 28 326 59 149 180 176 178 173 209 255 274 278 280 270 233 197 182 193 189 175 176 183 201 211 208 212 214 214 215 185 168 168 140 120 105 100 96 94 96 99 105 111 115 112 104 96 90 86 84 83 85 86 84 79 73 66 59 46 35 27 24 22 18 17 16 16 16 14 10 7 3 1 358 355 354 352 349 348 347 347 346 346 346 346 347 347 346 345 344 342 339 335 330 324 317 313
113 114 258 271 98 142 221 242 131 159 224 250 266 271 263 255 196 187 196 179 165 173 180 200 217 215 220 221 205 194 179 185 188 160 143 131 124 123 121 120 124 128 136 140 135 121 103 90 83 83 82 83 83 80 75 67 58 44 19 6 1 2 5 5 4 5 4 4 2 359 357 355 354 352 350 349 347 346 344 342 340 340 339 339 338 338 339 338 337 338 338 338 338 336 332 327 321
149 171 196 184 158 126 240 260 188 151 211 205 242 268 266 270 262 212 184 158 163 180 183 196 217 216 220 226 202 185 183 186 178 161 156 149 145 150 154 154 154 154 157 155 149 139 126 110 98 96 94 95 92 84 79 71 56 22 350 337 335 334 339 346 349 348 346 346 345 345 344 342 342 342 340 339 338 338 337 336 335 334 333 333 333 332 332 332 332 332 332 332 333 333 331 328 325